Index of /20260501/WXO-DD/model_rdps/10km/00/002
Name Last modified Size Description
Parent Directory -
20260501T00Z_MSC_RDPS_AbsoluteVorticity_IsbL-0250_RLatLon0.09_PT002H.grib2 2026-05-01 02:44 604K
20260501T00Z_MSC_RDPS_AbsoluteVorticity_IsbL-0500_RLatLon0.09_PT002H.grib2 2026-05-01 02:44 547K
20260501T00Z_MSC_RDPS_AbsoluteVorticity_IsbL-0700_RLatLon0.09_PT002H.grib2 2026-05-01 02:44 619K
20260501T00Z_MSC_RDPS_AbsoluteVorticity_IsbL-0850_RLatLon0.09_PT002H.grib2 2026-05-01 02:44 760K
20260501T00Z_MSC_RDPS_AirTemp_AGL-120m_RLatLon0.09_PT002H.grib2 2026-05-01 02:44 379K
20260501T00Z_MSC_RDPS_AirTemp_AGL-2m_RLatLon0.09_PT002H.grib2 2026-05-01 02:44 610K
20260501T00Z_MSC_RDPS_AirTemp_AGL-40m_RLatLon0.09_PT002H.grib2 2026-05-01 02:44 390K
20260501T00Z_MSC_RDPS_AirTemp_AGL-80m_RLatLon0.09_PT002H.grib2 2026-05-01 02:44 383K
20260501T00Z_MSC_RDPS_AirTemp_IsbL-0001_RLatLon0.09_PT002H.grib2 2026-05-01 02:44 249K
20260501T00Z_MSC_RDPS_AirTemp_IsbL-0005_RLatLon0.09_PT002H.grib2 2026-05-01 02:44 273K
20260501T00Z_MSC_RDPS_AirTemp_IsbL-0010_RLatLon0.09_PT002H.grib2 2026-05-01 02:44 284K
20260501T00Z_MSC_RDPS_AirTemp_IsbL-0020_RLatLon0.09_PT002H.grib2 2026-05-01 02:44 296K
20260501T00Z_MSC_RDPS_AirTemp_IsbL-0030_RLatLon0.09_PT002H.grib2 2026-05-01 02:44 316K
20260501T00Z_MSC_RDPS_AirTemp_IsbL-0050_RLatLon0.09_PT002H.grib2 2026-05-01 02:44 293K
20260501T00Z_MSC_RDPS_AirTemp_IsbL-0100_RLatLon0.09_PT002H.grib2 2026-05-01 02:44 403K
20260501T00Z_MSC_RDPS_AirTemp_IsbL-0150_RLatLon0.09_PT002H.grib2 2026-05-01 02:44 410K
20260501T00Z_MSC_RDPS_AirTemp_IsbL-0175_RLatLon0.09_PT002H.grib2 2026-05-01 02:44 400K
20260501T00Z_MSC_RDPS_AirTemp_IsbL-0200_RLatLon0.09_PT002H.grib2 2026-05-01 02:44 406K
20260501T00Z_MSC_RDPS_AirTemp_IsbL-0225_RLatLon0.09_PT002H.grib2 2026-05-01 02:44 409K
20260501T00Z_MSC_RDPS_AirTemp_IsbL-0250_RLatLon0.09_PT002H.grib2 2026-05-01 02:44 418K
20260501T00Z_MSC_RDPS_AirTemp_IsbL-0275_RLatLon0.09_PT002H.grib2 2026-05-01 02:44 399K
20260501T00Z_MSC_RDPS_AirTemp_IsbL-0300_RLatLon0.09_PT002H.grib2 2026-05-01 02:44 405K
20260501T00Z_MSC_RDPS_AirTemp_IsbL-0350_RLatLon0.09_PT002H.grib2 2026-05-01 02:44 421K
20260501T00Z_MSC_RDPS_AirTemp_IsbL-0400_RLatLon0.09_PT002H.grib2 2026-05-01 02:44 422K
20260501T00Z_MSC_RDPS_AirTemp_IsbL-0450_RLatLon0.09_PT002H.grib2 2026-05-01 02:44 394K
20260501T00Z_MSC_RDPS_AirTemp_IsbL-0500_RLatLon0.09_PT002H.grib2 2026-05-01 02:44 404K
20260501T00Z_MSC_RDPS_AirTemp_IsbL-0550_RLatLon0.09_PT002H.grib2 2026-05-01 02:44 422K
20260501T00Z_MSC_RDPS_AirTemp_IsbL-0600_RLatLon0.09_PT002H.grib2 2026-05-01 02:44 444K
20260501T00Z_MSC_RDPS_AirTemp_IsbL-0650_RLatLon0.09_PT002H.grib2 2026-05-01 02:44 460K
20260501T00Z_MSC_RDPS_AirTemp_IsbL-0700_RLatLon0.09_PT002H.grib2 2026-05-01 02:44 377K
20260501T00Z_MSC_RDPS_AirTemp_IsbL-0750_RLatLon0.09_PT002H.grib2 2026-05-01 02:44 404K
20260501T00Z_MSC_RDPS_AirTemp_IsbL-0800_RLatLon0.09_PT002H.grib2 2026-05-01 02:44 436K
20260501T00Z_MSC_RDPS_AirTemp_IsbL-0850_RLatLon0.09_PT002H.grib2 2026-05-01 02:44 475K
20260501T00Z_MSC_RDPS_AirTemp_IsbL-0875_RLatLon0.09_PT002H.grib2 2026-05-01 02:44 492K
20260501T00Z_MSC_RDPS_AirTemp_IsbL-0900_RLatLon0.09_PT002H.grib2 2026-05-01 02:44 501K
20260501T00Z_MSC_RDPS_AirTemp_IsbL-0925_RLatLon0.09_PT002H.grib2 2026-05-01 02:44 503K
20260501T00Z_MSC_RDPS_AirTemp_IsbL-0950_RLatLon0.09_PT002H.grib2 2026-05-01 02:44 510K
20260501T00Z_MSC_RDPS_AirTemp_IsbL-0970_RLatLon0.09_PT002H.grib2 2026-05-01 02:44 504K
20260501T00Z_MSC_RDPS_AirTemp_IsbL-0985_RLatLon0.09_PT002H.grib2 2026-05-01 02:44 494K
20260501T00Z_MSC_RDPS_AirTemp_IsbL-1000_RLatLon0.09_PT002H.grib2 2026-05-01 02:44 478K
20260501T00Z_MSC_RDPS_AirTemp_IsbL-1015_RLatLon0.09_PT002H.grib2 2026-05-01 02:44 473K
20260501T00Z_MSC_RDPS_Albedo_Sfc_RLatLon0.09_PT002H.grib2 2026-05-01 02:44 162K
20260501T00Z_MSC_RDPS_CAPE_Sfc_RLatLon0.09_PT002H.grib2 2026-05-01 02:44 1.6M
20260501T00Z_MSC_RDPS_CIN_Sfc_RLatLon0.09_PT002H.grib2 2026-05-01 02:44 1.2M
20260501T00Z_MSC_RDPS_CloudWater_EAtm_RLatLon0.09_PT002H.grib2 2026-05-01 02:44 216K
20260501T00Z_MSC_RDPS_ConvectivePrecip-Accum_Sfc_RLatLon0.09_PT002H.grib2 2026-05-01 02:44 368K
20260501T00Z_MSC_RDPS_DewPointDepression_AGL-2m_RLatLon0.09_PT002H.grib2 2026-05-01 02:44 390K
20260501T00Z_MSC_RDPS_DewPointDepression_IsbL-0001_RLatLon0.09_PT002H.grib2 2026-05-01 02:44 193
20260501T00Z_MSC_RDPS_DewPointDepression_IsbL-0005_RLatLon0.09_PT002H.grib2 2026-05-01 02:44 193
20260501T00Z_MSC_RDPS_DewPointDepression_IsbL-0010_RLatLon0.09_PT002H.grib2 2026-05-01 02:44 193
20260501T00Z_MSC_RDPS_DewPointDepression_IsbL-0020_RLatLon0.09_PT002H.grib2 2026-05-01 02:44 193
20260501T00Z_MSC_RDPS_DewPointDepression_IsbL-0030_RLatLon0.09_PT002H.grib2 2026-05-01 02:44 193
20260501T00Z_MSC_RDPS_DewPointDepression_IsbL-0050_RLatLon0.09_PT002H.grib2 2026-05-01 02:44 79K
20260501T00Z_MSC_RDPS_DewPointDepression_IsbL-0100_RLatLon0.09_PT002H.grib2 2026-05-01 02:44 125K
20260501T00Z_MSC_RDPS_DewPointDepression_IsbL-0150_RLatLon0.09_PT002H.grib2 2026-05-01 02:44 149K
20260501T00Z_MSC_RDPS_DewPointDepression_IsbL-0175_RLatLon0.09_PT002H.grib2 2026-05-01 02:44 182K
20260501T00Z_MSC_RDPS_DewPointDepression_IsbL-0200_RLatLon0.09_PT002H.grib2 2026-05-01 02:44 221K
20260501T00Z_MSC_RDPS_DewPointDepression_IsbL-0225_RLatLon0.09_PT002H.grib2 2026-05-01 02:44 262K
20260501T00Z_MSC_RDPS_DewPointDepression_IsbL-0250_RLatLon0.09_PT002H.grib2 2026-05-01 02:44 299K
20260501T00Z_MSC_RDPS_DewPointDepression_IsbL-0275_RLatLon0.09_PT002H.grib2 2026-05-01 02:44 304K
20260501T00Z_MSC_RDPS_DewPointDepression_IsbL-0300_RLatLon0.09_PT002H.grib2 2026-05-01 02:44 323K
20260501T00Z_MSC_RDPS_DewPointDepression_IsbL-0350_RLatLon0.09_PT002H.grib2 2026-05-01 02:44 327K
20260501T00Z_MSC_RDPS_DewPointDepression_IsbL-0400_RLatLon0.09_PT002H.grib2 2026-05-01 02:44 336K
20260501T00Z_MSC_RDPS_DewPointDepression_IsbL-0450_RLatLon0.09_PT002H.grib2 2026-05-01 02:44 340K
20260501T00Z_MSC_RDPS_DewPointDepression_IsbL-0500_RLatLon0.09_PT002H.grib2 2026-05-01 02:44 342K
20260501T00Z_MSC_RDPS_DewPointDepression_IsbL-0550_RLatLon0.09_PT002H.grib2 2026-05-01 02:44 354K
20260501T00Z_MSC_RDPS_DewPointDepression_IsbL-0600_RLatLon0.09_PT002H.grib2 2026-05-01 02:44 370K
20260501T00Z_MSC_RDPS_DewPointDepression_IsbL-0650_RLatLon0.09_PT002H.grib2 2026-05-01 02:44 378K
20260501T00Z_MSC_RDPS_DewPointDepression_IsbL-0700_RLatLon0.09_PT002H.grib2 2026-05-01 02:44 388K
20260501T00Z_MSC_RDPS_DewPointDepression_IsbL-0750_RLatLon0.09_PT002H.grib2 2026-05-01 02:44 405K
20260501T00Z_MSC_RDPS_DewPointDepression_IsbL-0800_RLatLon0.09_PT002H.grib2 2026-05-01 02:44 428K
20260501T00Z_MSC_RDPS_DewPointDepression_IsbL-0850_RLatLon0.09_PT002H.grib2 2026-05-01 02:44 447K
20260501T00Z_MSC_RDPS_DewPointDepression_IsbL-0875_RLatLon0.09_PT002H.grib2 2026-05-01 02:44 453K
20260501T00Z_MSC_RDPS_DewPointDepression_IsbL-0900_RLatLon0.09_PT002H.grib2 2026-05-01 02:44 449K
20260501T00Z_MSC_RDPS_DewPointDepression_IsbL-0925_RLatLon0.09_PT002H.grib2 2026-05-01 02:44 439K
20260501T00Z_MSC_RDPS_DewPointDepression_IsbL-0950_RLatLon0.09_PT002H.grib2 2026-05-01 02:44 437K
20260501T00Z_MSC_RDPS_DewPointDepression_IsbL-0970_RLatLon0.09_PT002H.grib2 2026-05-01 02:44 427K
20260501T00Z_MSC_RDPS_DewPointDepression_IsbL-0985_RLatLon0.09_PT002H.grib2 2026-05-01 02:44 420K
20260501T00Z_MSC_RDPS_DewPointDepression_IsbL-1000_RLatLon0.09_PT002H.grib2 2026-05-01 02:44 411K
20260501T00Z_MSC_RDPS_DewPointDepression_IsbL-1015_RLatLon0.09_PT002H.grib2 2026-05-01 02:44 400K
20260501T00Z_MSC_RDPS_DewPoint_AGL-2m_RLatLon0.09_PT002H.grib2 2026-05-01 02:44 299K
20260501T00Z_MSC_RDPS_DownwardLongwaveRadiationFlux-Accum_Sfc_RLatLon0.09_PT002H.grib2 2026-05-01 02:44 505K
20260501T00Z_MSC_RDPS_DownwardShortwaveRadiationFlux-Accum_NTAtm_RLatLon0.09_PT002H.grib2 2026-05-01 02:44 101K
20260501T00Z_MSC_RDPS_DownwardShortwaveRadiationFlux-Accum_Sfc_RLatLon0.09_PT002H.grib2 2026-05-01 02:44 332K
20260501T00Z_MSC_RDPS_FreezingRain-Accum1h_Sfc_RLatLon0.09_PT002H.grib2 2026-05-01 02:44 20K
20260501T00Z_MSC_RDPS_FreezingRain-Accum_Sfc_RLatLon0.09_PT002H.grib2 2026-05-01 02:44 27K
20260501T00Z_MSC_RDPS_GeopotentialHeight_IsbL-0001_RLatLon0.09_PT002H.grib2 2026-05-01 02:44 305K
20260501T00Z_MSC_RDPS_GeopotentialHeight_IsbL-0005_RLatLon0.09_PT002H.grib2 2026-05-01 02:44 294K
20260501T00Z_MSC_RDPS_GeopotentialHeight_IsbL-0010_RLatLon0.09_PT002H.grib2 2026-05-01 02:44 295K
20260501T00Z_MSC_RDPS_GeopotentialHeight_IsbL-0020_RLatLon0.09_PT002H.grib2 2026-05-01 02:44 295K
20260501T00Z_MSC_RDPS_GeopotentialHeight_IsbL-0030_RLatLon0.09_PT002H.grib2 2026-05-01 02:44 296K
20260501T00Z_MSC_RDPS_GeopotentialHeight_IsbL-0050_RLatLon0.09_PT002H.grib2 2026-05-01 02:44 298K
20260501T00Z_MSC_RDPS_GeopotentialHeight_IsbL-0100_RLatLon0.09_PT002H.grib2 2026-05-01 02:44 279K
20260501T00Z_MSC_RDPS_GeopotentialHeight_IsbL-0150_RLatLon0.09_PT002H.grib2 2026-05-01 02:44 225K
20260501T00Z_MSC_RDPS_GeopotentialHeight_IsbL-0175_RLatLon0.09_PT002H.grib2 2026-05-01 02:44 258K
20260501T00Z_MSC_RDPS_GeopotentialHeight_IsbL-0200_RLatLon0.09_PT002H.grib2 2026-05-01 02:44 262K
20260501T00Z_MSC_RDPS_GeopotentialHeight_IsbL-0225_RLatLon0.09_PT002H.grib2 2026-05-01 02:44 264K
20260501T00Z_MSC_RDPS_GeopotentialHeight_IsbL-0250_RLatLon0.09_PT002H.grib2 2026-05-01 02:44 265K
20260501T00Z_MSC_RDPS_GeopotentialHeight_IsbL-0275_RLatLon0.09_PT002H.grib2 2026-05-01 02:44 265K
20260501T00Z_MSC_RDPS_GeopotentialHeight_IsbL-0300_RLatLon0.09_PT002H.grib2 2026-05-01 02:44 265K
20260501T00Z_MSC_RDPS_GeopotentialHeight_IsbL-0350_RLatLon0.09_PT002H.grib2 2026-05-01 02:44 231K
20260501T00Z_MSC_RDPS_GeopotentialHeight_IsbL-0400_RLatLon0.09_PT002H.grib2 2026-05-01 02:44 227K
20260501T00Z_MSC_RDPS_GeopotentialHeight_IsbL-0450_RLatLon0.09_PT002H.grib2 2026-05-01 02:44 295K
20260501T00Z_MSC_RDPS_GeopotentialHeight_IsbL-0500_RLatLon0.09_PT002H.grib2 2026-05-01 02:44 290K
20260501T00Z_MSC_RDPS_GeopotentialHeight_IsbL-0550_RLatLon0.09_PT002H.grib2 2026-05-01 02:44 285K
20260501T00Z_MSC_RDPS_GeopotentialHeight_IsbL-0600_RLatLon0.09_PT002H.grib2 2026-05-01 02:44 254K
20260501T00Z_MSC_RDPS_GeopotentialHeight_IsbL-0650_RLatLon0.09_PT002H.grib2 2026-05-01 02:44 252K
20260501T00Z_MSC_RDPS_GeopotentialHeight_IsbL-0700_RLatLon0.09_PT002H.grib2 2026-05-01 02:44 332K
20260501T00Z_MSC_RDPS_GeopotentialHeight_IsbL-0750_RLatLon0.09_PT002H.grib2 2026-05-01 02:44 333K
20260501T00Z_MSC_RDPS_GeopotentialHeight_IsbL-0800_RLatLon0.09_PT002H.grib2 2026-05-01 02:44 338K
20260501T00Z_MSC_RDPS_GeopotentialHeight_IsbL-0850_RLatLon0.09_PT002H.grib2 2026-05-01 02:44 344K
20260501T00Z_MSC_RDPS_GeopotentialHeight_IsbL-0875_RLatLon0.09_PT002H.grib2 2026-05-01 02:44 378K
20260501T00Z_MSC_RDPS_GeopotentialHeight_IsbL-0900_RLatLon0.09_PT002H.grib2 2026-05-01 02:44 381K
20260501T00Z_MSC_RDPS_GeopotentialHeight_IsbL-0925_RLatLon0.09_PT002H.grib2 2026-05-01 02:44 385K
20260501T00Z_MSC_RDPS_GeopotentialHeight_IsbL-0950_RLatLon0.09_PT002H.grib2 2026-05-01 02:44 389K
20260501T00Z_MSC_RDPS_GeopotentialHeight_IsbL-0970_RLatLon0.09_PT002H.grib2 2026-05-01 02:44 363K
20260501T00Z_MSC_RDPS_GeopotentialHeight_IsbL-0985_RLatLon0.09_PT002H.grib2 2026-05-01 02:44 371K
20260501T00Z_MSC_RDPS_GeopotentialHeight_IsbL-1000_RLatLon0.09_PT002H.grib2 2026-05-01 02:44 382K
20260501T00Z_MSC_RDPS_GeopotentialHeight_IsbL-1015_RLatLon0.09_PT002H.grib2 2026-05-01 02:44 395K
20260501T00Z_MSC_RDPS_Humidex_Sfc_RLatLon0.09_PT002H.grib2 2026-05-01 02:44 2.2M
20260501T00Z_MSC_RDPS_IcePellets-Accum1h_Sfc_RLatLon0.09_PT002H.grib2 2026-05-01 02:44 1.5K
20260501T00Z_MSC_RDPS_IcePellets-Accum_Sfc_RLatLon0.09_PT002H.grib2 2026-05-01 02:44 1.5K
20260501T00Z_MSC_RDPS_KIndex_Sfc_RLatLon0.09_PT002H.grib2 2026-05-01 02:44 2.4M
20260501T00Z_MSC_RDPS_LatentHeatNetFlux_Sfc_RLatLon0.09_PT002H.grib2 2026-05-01 02:44 397K
20260501T00Z_MSC_RDPS_LiftedIndex-MU-VT_IsbL-0500_RLatLon0.09_PT002H.grib2 2026-05-01 02:44 2.4M
20260501T00Z_MSC_RDPS_NetLongwaveRadiationFlux-Accum_Sfc_RLatLon0.09_PT002H.grib2 2026-05-01 02:44 641K
20260501T00Z_MSC_RDPS_NetShortwaveRadiationFlux-Accum_Sfc_RLatLon0.09_PT002H.grib2 2026-05-01 02:44 307K
20260501T00Z_MSC_RDPS_PlanetaryBoundaryLayerHeight_Sfc_RLatLon0.09_PT002H.grib2 2026-05-01 02:44 1.1M
20260501T00Z_MSC_RDPS_Precip-Accum1h_Sfc_RLatLon0.09_PT002H.grib2 2026-05-01 02:44 1.1M
20260501T00Z_MSC_RDPS_Precip-Accum_Sfc_RLatLon0.09_PT002H.grib2 2026-05-01 02:44 1.1M
20260501T00Z_MSC_RDPS_PrecipRate_Sfc_RLatLon0.09_PT002H.grib2 2026-05-01 02:44 162K
20260501T00Z_MSC_RDPS_PrecipType-Instant_Sfc_RLatLon0.09_PT002H.grib2 2026-05-01 02:44 538K
20260501T00Z_MSC_RDPS_Pressure_MSL_RLatLon0.09_PT002H.grib2 2026-05-01 02:44 319K
20260501T00Z_MSC_RDPS_Pressure_PVU-1.5_RLatLon0.09_PT002H.grib2 2026-05-01 02:44 2.3M
20260501T00Z_MSC_RDPS_Pressure_PVU-1_RLatLon0.09_PT002H.grib2 2026-05-01 02:44 2.4M
20260501T00Z_MSC_RDPS_Pressure_PVU-2_RLatLon0.09_PT002H.grib2 2026-05-01 02:44 2.4M
20260501T00Z_MSC_RDPS_Pressure_Sfc_RLatLon0.09_PT002H.grib2 2026-05-01 02:44 498K
20260501T00Z_MSC_RDPS_RadiativeTemp_Sfc_RLatLon0.09_PT002H.grib2 2026-05-01 02:44 294K
20260501T00Z_MSC_RDPS_Rain-Accum1h_Sfc_RLatLon0.09_PT002H.grib2 2026-05-01 02:44 555K
20260501T00Z_MSC_RDPS_Rain-Accum_Sfc_RLatLon0.09_PT002H.grib2 2026-05-01 02:44 787K
20260501T00Z_MSC_RDPS_RelativeHumidity_AGL-2m_RLatLon0.09_PT002H.grib2 2026-05-01 02:44 1.0M
20260501T00Z_MSC_RDPS_RelativeHumidity_IsbL-0010_RLatLon0.09_PT002H.grib2 2026-05-01 02:44 627K
20260501T00Z_MSC_RDPS_RelativeHumidity_IsbL-0020_RLatLon0.09_PT002H.grib2 2026-05-01 02:44 672K
20260501T00Z_MSC_RDPS_RelativeHumidity_IsbL-0030_RLatLon0.09_PT002H.grib2 2026-05-01 02:44 594K
20260501T00Z_MSC_RDPS_RelativeHumidity_IsbL-0050_RLatLon0.09_PT002H.grib2 2026-05-01 02:44 305K
20260501T00Z_MSC_RDPS_RelativeHumidity_IsbL-0100_RLatLon0.09_PT002H.grib2 2026-05-01 02:44 277K
20260501T00Z_MSC_RDPS_RelativeHumidity_IsbL-0150_RLatLon0.09_PT002H.grib2 2026-05-01 02:44 401K
20260501T00Z_MSC_RDPS_RelativeHumidity_IsbL-0175_RLatLon0.09_PT002H.grib2 2026-05-01 02:44 471K
20260501T00Z_MSC_RDPS_RelativeHumidity_IsbL-0200_RLatLon0.09_PT002H.grib2 2026-05-01 02:44 554K
20260501T00Z_MSC_RDPS_RelativeHumidity_IsbL-0225_RLatLon0.09_PT002H.grib2 2026-05-01 02:44 620K
20260501T00Z_MSC_RDPS_RelativeHumidity_IsbL-0250_RLatLon0.09_PT002H.grib2 2026-05-01 02:44 690K
20260501T00Z_MSC_RDPS_RelativeHumidity_IsbL-0275_RLatLon0.09_PT002H.grib2 2026-05-01 02:44 713K
20260501T00Z_MSC_RDPS_RelativeHumidity_IsbL-0300_RLatLon0.09_PT002H.grib2 2026-05-01 02:44 754K
20260501T00Z_MSC_RDPS_RelativeHumidity_IsbL-0350_RLatLon0.09_PT002H.grib2 2026-05-01 02:44 771K
20260501T00Z_MSC_RDPS_RelativeHumidity_IsbL-0400_RLatLon0.09_PT002H.grib2 2026-05-01 02:44 780K
20260501T00Z_MSC_RDPS_RelativeHumidity_IsbL-0450_RLatLon0.09_PT002H.grib2 2026-05-01 02:44 782K
20260501T00Z_MSC_RDPS_RelativeHumidity_IsbL-0500_RLatLon0.09_PT002H.grib2 2026-05-01 02:44 793K
20260501T00Z_MSC_RDPS_RelativeHumidity_IsbL-0550_RLatLon0.09_PT002H.grib2 2026-05-01 02:44 812K
20260501T00Z_MSC_RDPS_RelativeHumidity_IsbL-0600_RLatLon0.09_PT002H.grib2 2026-05-01 02:44 840K
20260501T00Z_MSC_RDPS_RelativeHumidity_IsbL-0650_RLatLon0.09_PT002H.grib2 2026-05-01 02:44 857K
20260501T00Z_MSC_RDPS_RelativeHumidity_IsbL-0700_RLatLon0.09_PT002H.grib2 2026-05-01 02:44 883K
20260501T00Z_MSC_RDPS_RelativeHumidity_IsbL-0750_RLatLon0.09_PT002H.grib2 2026-05-01 02:44 919K
20260501T00Z_MSC_RDPS_RelativeHumidity_IsbL-0800_RLatLon0.09_PT002H.grib2 2026-05-01 02:44 968K
20260501T00Z_MSC_RDPS_RelativeHumidity_IsbL-0850_RLatLon0.09_PT002H.grib2 2026-05-01 02:44 1.0M
20260501T00Z_MSC_RDPS_RelativeHumidity_IsbL-0875_RLatLon0.09_PT002H.grib2 2026-05-01 02:44 1.0M
20260501T00Z_MSC_RDPS_RelativeHumidity_IsbL-0900_RLatLon0.09_PT002H.grib2 2026-05-01 02:44 1.0M
20260501T00Z_MSC_RDPS_RelativeHumidity_IsbL-0925_RLatLon0.09_PT002H.grib2 2026-05-01 02:44 1.0M
20260501T00Z_MSC_RDPS_RelativeHumidity_IsbL-0950_RLatLon0.09_PT002H.grib2 2026-05-01 02:44 1.0M
20260501T00Z_MSC_RDPS_RelativeHumidity_IsbL-0970_RLatLon0.09_PT002H.grib2 2026-05-01 02:44 1.0M
20260501T00Z_MSC_RDPS_RelativeHumidity_IsbL-0985_RLatLon0.09_PT002H.grib2 2026-05-01 02:44 1.0M
20260501T00Z_MSC_RDPS_RelativeHumidity_IsbL-1000_RLatLon0.09_PT002H.grib2 2026-05-01 02:44 1.0M
20260501T00Z_MSC_RDPS_RelativeHumidity_IsbL-1015_RLatLon0.09_PT002H.grib2 2026-05-01 02:44 1.0M
20260501T00Z_MSC_RDPS_Runoff-Accum_Sfc_RLatLon0.09_PT002H.grib2 2026-05-01 02:44 37K
20260501T00Z_MSC_RDPS_SWEATIndex_Sfc_RLatLon0.09_PT002H.grib2 2026-05-01 02:44 2.4M
20260501T00Z_MSC_RDPS_SeeingIndex_EAtm_RLatLon0.09_PT002H.grib2 2026-05-01 02:44 1.0M
20260501T00Z_MSC_RDPS_SensibleHeatNetFlux_Sfc_RLatLon0.09_PT002H.grib2 2026-05-01 02:44 278K
20260501T00Z_MSC_RDPS_ShowalterIndex_IsbL-0500_RLatLon0.09_PT002H.grib2 2026-05-01 02:44 2.6M
20260501T00Z_MSC_RDPS_SkyTransparencyIndex_EAtm_RLatLon0.09_PT002H.grib2 2026-05-01 02:44 692K
20260501T00Z_MSC_RDPS_Snow-Accum1h_Sfc_RLatLon0.09_PT002H.grib2 2026-05-01 02:44 414K
20260501T00Z_MSC_RDPS_Snow-Accum_Sfc_RLatLon0.09_PT002H.grib2 2026-05-01 02:44 555K
20260501T00Z_MSC_RDPS_SnowDensity_Sfc_RLatLon0.09_PT002H.grib2 2026-05-01 02:44 166K
20260501T00Z_MSC_RDPS_SnowDepth_Sfc_RLatLon0.09_PT002H.grib2 2026-05-01 02:44 662K
20260501T00Z_MSC_RDPS_SoilTemp_DBS-0to10cm_RLatLon0.09_PT002H.grib2 2026-05-01 02:44 191K
20260501T00Z_MSC_RDPS_SoilTemp_Sfc_RLatLon0.09_PT002H.grib2 2026-05-01 02:44 254K
20260501T00Z_MSC_RDPS_SoilVolumetricIceContent_Sfc_RLatLon0.09_PT002H.grib2 2026-05-01 02:44 162K
20260501T00Z_MSC_RDPS_SoilVolumetricWaterContent_DBS-0to10cm_RLatLon0.09_PT002H.grib2 2026-05-01 02:44 268K
20260501T00Z_MSC_RDPS_SoilVolumetricWaterContent_DBS-0to1cm_RLatLon0.09_PT002H.grib2 2026-05-01 02:44 330K
20260501T00Z_MSC_RDPS_SpecificHumidity_AGL-120m_RLatLon0.09_PT002H.grib2 2026-05-01 02:44 467K
20260501T00Z_MSC_RDPS_SpecificHumidity_AGL-2m_RLatLon0.09_PT002H.grib2 2026-05-01 02:44 633K
20260501T00Z_MSC_RDPS_SpecificHumidity_AGL-40m_RLatLon0.09_PT002H.grib2 2026-05-01 02:44 473K
20260501T00Z_MSC_RDPS_SpecificHumidity_AGL-80m_RLatLon0.09_PT002H.grib2 2026-05-01 02:44 468K
20260501T00Z_MSC_RDPS_SpecificHumidity_IsbL-0001_RLatLon0.09_PT002H.grib2 2026-05-01 02:44 389K
20260501T00Z_MSC_RDPS_SpecificHumidity_IsbL-0005_RLatLon0.09_PT002H.grib2 2026-05-01 02:44 354K
20260501T00Z_MSC_RDPS_SpecificHumidity_IsbL-0010_RLatLon0.09_PT002H.grib2 2026-05-01 02:44 388K
20260501T00Z_MSC_RDPS_SpecificHumidity_IsbL-0020_RLatLon0.09_PT002H.grib2 2026-05-01 02:44 381K
20260501T00Z_MSC_RDPS_SpecificHumidity_IsbL-0030_RLatLon0.09_PT002H.grib2 2026-05-01 02:44 368K
20260501T00Z_MSC_RDPS_SpecificHumidity_IsbL-0050_RLatLon0.09_PT002H.grib2 2026-05-01 02:44 479K
20260501T00Z_MSC_RDPS_SpecificHumidity_IsbL-0100_RLatLon0.09_PT002H.grib2 2026-05-01 02:44 442K
20260501T00Z_MSC_RDPS_SpecificHumidity_IsbL-0150_RLatLon0.09_PT002H.grib2 2026-05-01 02:44 446K
20260501T00Z_MSC_RDPS_SpecificHumidity_IsbL-0175_RLatLon0.09_PT002H.grib2 2026-05-01 02:44 531K
20260501T00Z_MSC_RDPS_SpecificHumidity_IsbL-0200_RLatLon0.09_PT002H.grib2 2026-05-01 02:44 450K
20260501T00Z_MSC_RDPS_SpecificHumidity_IsbL-0225_RLatLon0.09_PT002H.grib2 2026-05-01 02:44 453K
20260501T00Z_MSC_RDPS_SpecificHumidity_IsbL-0250_RLatLon0.09_PT002H.grib2 2026-05-01 02:44 559K
20260501T00Z_MSC_RDPS_SpecificHumidity_IsbL-0275_RLatLon0.09_PT002H.grib2 2026-05-01 02:44 474K
20260501T00Z_MSC_RDPS_SpecificHumidity_IsbL-0300_RLatLon0.09_PT002H.grib2 2026-05-01 02:44 572K
20260501T00Z_MSC_RDPS_SpecificHumidity_IsbL-0350_RLatLon0.09_PT002H.grib2 2026-05-01 02:44 562K
20260501T00Z_MSC_RDPS_SpecificHumidity_IsbL-0400_RLatLon0.09_PT002H.grib2 2026-05-01 02:44 515K
20260501T00Z_MSC_RDPS_SpecificHumidity_IsbL-0450_RLatLon0.09_PT002H.grib2 2026-05-01 02:44 564K
20260501T00Z_MSC_RDPS_SpecificHumidity_IsbL-0500_RLatLon0.09_PT002H.grib2 2026-05-01 02:44 496K
20260501T00Z_MSC_RDPS_SpecificHumidity_IsbL-0550_RLatLon0.09_PT002H.grib2 2026-05-01 02:44 570K
20260501T00Z_MSC_RDPS_SpecificHumidity_IsbL-0600_RLatLon0.09_PT002H.grib2 2026-05-01 02:44 628K
20260501T00Z_MSC_RDPS_SpecificHumidity_IsbL-0650_RLatLon0.09_PT002H.grib2 2026-05-01 02:44 549K
20260501T00Z_MSC_RDPS_SpecificHumidity_IsbL-0700_RLatLon0.09_PT002H.grib2 2026-05-01 02:44 591K
20260501T00Z_MSC_RDPS_SpecificHumidity_IsbL-0750_RLatLon0.09_PT002H.grib2 2026-05-01 02:44 654K
20260501T00Z_MSC_RDPS_SpecificHumidity_IsbL-0800_RLatLon0.09_PT002H.grib2 2026-05-01 02:44 713K
20260501T00Z_MSC_RDPS_SpecificHumidity_IsbL-0850_RLatLon0.09_PT002H.grib2 2026-05-01 02:44 775K
20260501T00Z_MSC_RDPS_SpecificHumidity_IsbL-0875_RLatLon0.09_PT002H.grib2 2026-05-01 02:44 801K
20260501T00Z_MSC_RDPS_SpecificHumidity_IsbL-0900_RLatLon0.09_PT002H.grib2 2026-05-01 02:44 818K
20260501T00Z_MSC_RDPS_SpecificHumidity_IsbL-0925_RLatLon0.09_PT002H.grib2 2026-05-01 02:44 823K
20260501T00Z_MSC_RDPS_SpecificHumidity_IsbL-0950_RLatLon0.09_PT002H.grib2 2026-05-01 02:44 828K
20260501T00Z_MSC_RDPS_SpecificHumidity_IsbL-0970_RLatLon0.09_PT002H.grib2 2026-05-01 02:44 677K
20260501T00Z_MSC_RDPS_SpecificHumidity_IsbL-0985_RLatLon0.09_PT002H.grib2 2026-05-01 02:44 665K
20260501T00Z_MSC_RDPS_SpecificHumidity_IsbL-1000_RLatLon0.09_PT002H.grib2 2026-05-01 02:44 654K
20260501T00Z_MSC_RDPS_SpecificHumidity_IsbL-1015_RLatLon0.09_PT002H.grib2 2026-05-01 02:44 642K
20260501T00Z_MSC_RDPS_SpecificHumidity_Sfc_RLatLon0.09_PT002H.grib2 2026-05-01 02:44 294K
20260501T00Z_MSC_RDPS_StormRelativeHelicity_EtaL-10000_RLatLon0.09_PT002H.grib2 2026-05-01 02:44 1.1M
20260501T00Z_MSC_RDPS_StormSeverityIndex_EtaL-10000_RLatLon0.09_PT002H.grib2 2026-05-01 02:44 1.1M
20260501T00Z_MSC_RDPS_Thickness_IsbL-0850to0700_RLatLon0.09_PT002H.grib2 2026-05-01 02:44 175K
20260501T00Z_MSC_RDPS_Thickness_IsbL-1000to0500_RLatLon0.09_PT002H.grib2 2026-05-01 02:44 197K
20260501T00Z_MSC_RDPS_Thickness_IsbL-1000to0850_RLatLon0.09_PT002H.grib2 2026-05-01 02:44 182K
20260501T00Z_MSC_RDPS_TotalCloudCover_Sfc_RLatLon0.09_PT002H.grib2 2026-05-01 02:44 647K
20260501T00Z_MSC_RDPS_TotalTotalsIndex_Sfc_RLatLon0.09_PT002H.grib2 2026-05-01 02:44 2.3M
20260501T00Z_MSC_RDPS_UVIndex-ClearSky_Sfc_RLatLon0.09_PT002H.grib2 2026-05-01 02:44 116K
20260501T00Z_MSC_RDPS_UVIndex_Sfc_RLatLon0.09_PT002H.grib2 2026-05-01 02:44 244K
20260501T00Z_MSC_RDPS_UpwardLongwaveRadiationFlux_NTAtm_RLatLon0.09_PT002H.grib2 2026-05-01 02:44 488K
20260501T00Z_MSC_RDPS_UpwardShortwaveRadiationFlux_NTAtm_RLatLon0.09_PT002H.grib2 2026-05-01 02:44 232K
20260501T00Z_MSC_RDPS_VerticalVelocity_IsbL-0250_RLatLon0.09_PT002H.grib2 2026-05-01 02:44 545K
20260501T00Z_MSC_RDPS_VerticalVelocity_IsbL-0500_RLatLon0.09_PT002H.grib2 2026-05-01 02:44 536K
20260501T00Z_MSC_RDPS_VerticalVelocity_IsbL-0700_RLatLon0.09_PT002H.grib2 2026-05-01 02:44 587K
20260501T00Z_MSC_RDPS_VerticalVelocity_IsbL-0850_RLatLon0.09_PT002H.grib2 2026-05-01 02:44 694K
20260501T00Z_MSC_RDPS_VerticalWindShear_EtaL-6500_RLatLon0.09_PT002H.grib2 2026-05-01 02:44 1.2M
20260501T00Z_MSC_RDPS_WindChill_Sfc_RLatLon0.09_PT002H.grib2 2026-05-01 02:44 1.1M
20260501T00Z_MSC_RDPS_WindDir_AGL-10m_RLatLon0.09_PT002H.grib2 2026-05-01 02:44 951K
20260501T00Z_MSC_RDPS_WindDir_AGL-120m_RLatLon0.09_PT002H.grib2 2026-05-01 02:44 595K
20260501T00Z_MSC_RDPS_WindDir_AGL-40m_RLatLon0.09_PT002H.grib2 2026-05-01 02:44 625K
20260501T00Z_MSC_RDPS_WindDir_AGL-80m_RLatLon0.09_PT002H.grib2 2026-05-01 02:44 607K
20260501T00Z_MSC_RDPS_WindDir_IsbL-0001_RLatLon0.09_PT002H.grib2 2026-05-01 02:44 311K
20260501T00Z_MSC_RDPS_WindDir_IsbL-0005_RLatLon0.09_PT002H.grib2 2026-05-01 02:44 358K
20260501T00Z_MSC_RDPS_WindDir_IsbL-0010_RLatLon0.09_PT002H.grib2 2026-05-01 02:44 370K
20260501T00Z_MSC_RDPS_WindDir_IsbL-0020_RLatLon0.09_PT002H.grib2 2026-05-01 02:44 408K
20260501T00Z_MSC_RDPS_WindDir_IsbL-0030_RLatLon0.09_PT002H.grib2 2026-05-01 02:44 399K
20260501T00Z_MSC_RDPS_WindDir_IsbL-0050_RLatLon0.09_PT002H.grib2 2026-05-01 02:44 394K
20260501T00Z_MSC_RDPS_WindDir_IsbL-0100_RLatLon0.09_PT002H.grib2 2026-05-01 02:44 417K
20260501T00Z_MSC_RDPS_WindDir_IsbL-0150_RLatLon0.09_PT002H.grib2 2026-05-01 02:44 423K
20260501T00Z_MSC_RDPS_WindDir_IsbL-0175_RLatLon0.09_PT002H.grib2 2026-05-01 02:44 440K
20260501T00Z_MSC_RDPS_WindDir_IsbL-0200_RLatLon0.09_PT002H.grib2 2026-05-01 02:44 449K
20260501T00Z_MSC_RDPS_WindDir_IsbL-0225_RLatLon0.09_PT002H.grib2 2026-05-01 02:44 456K
20260501T00Z_MSC_RDPS_WindDir_IsbL-0250_RLatLon0.09_PT002H.grib2 2026-05-01 02:44 453K
20260501T00Z_MSC_RDPS_WindDir_IsbL-0275_RLatLon0.09_PT002H.grib2 2026-05-01 02:44 474K
20260501T00Z_MSC_RDPS_WindDir_IsbL-0300_RLatLon0.09_PT002H.grib2 2026-05-01 02:44 477K
20260501T00Z_MSC_RDPS_WindDir_IsbL-0350_RLatLon0.09_PT002H.grib2 2026-05-01 02:44 489K
20260501T00Z_MSC_RDPS_WindDir_IsbL-0400_RLatLon0.09_PT002H.grib2 2026-05-01 02:44 502K
20260501T00Z_MSC_RDPS_WindDir_IsbL-0450_RLatLon0.09_PT002H.grib2 2026-05-01 02:44 510K
20260501T00Z_MSC_RDPS_WindDir_IsbL-0500_RLatLon0.09_PT002H.grib2 2026-05-01 02:44 530K
20260501T00Z_MSC_RDPS_WindDir_IsbL-0550_RLatLon0.09_PT002H.grib2 2026-05-01 02:44 551K
20260501T00Z_MSC_RDPS_WindDir_IsbL-0600_RLatLon0.09_PT002H.grib2 2026-05-01 02:44 586K
20260501T00Z_MSC_RDPS_WindDir_IsbL-0650_RLatLon0.09_PT002H.grib2 2026-05-01 02:44 634K
20260501T00Z_MSC_RDPS_WindDir_IsbL-0700_RLatLon0.09_PT002H.grib2 2026-05-01 02:44 688K
20260501T00Z_MSC_RDPS_WindDir_IsbL-0750_RLatLon0.09_PT002H.grib2 2026-05-01 02:44 738K
20260501T00Z_MSC_RDPS_WindDir_IsbL-0800_RLatLon0.09_PT002H.grib2 2026-05-01 02:44 792K
20260501T00Z_MSC_RDPS_WindDir_IsbL-0850_RLatLon0.09_PT002H.grib2 2026-05-01 02:44 848K
20260501T00Z_MSC_RDPS_WindDir_IsbL-0875_RLatLon0.09_PT002H.grib2 2026-05-01 02:44 870K
20260501T00Z_MSC_RDPS_WindDir_IsbL-0900_RLatLon0.09_PT002H.grib2 2026-05-01 02:44 887K
20260501T00Z_MSC_RDPS_WindDir_IsbL-0925_RLatLon0.09_PT002H.grib2 2026-05-01 02:44 897K
20260501T00Z_MSC_RDPS_WindDir_IsbL-0950_RLatLon0.09_PT002H.grib2 2026-05-01 02:44 902K
20260501T00Z_MSC_RDPS_WindDir_IsbL-0970_RLatLon0.09_PT002H.grib2 2026-05-01 02:44 907K
20260501T00Z_MSC_RDPS_WindDir_IsbL-0985_RLatLon0.09_PT002H.grib2 2026-05-01 02:44 915K
20260501T00Z_MSC_RDPS_WindDir_IsbL-1000_RLatLon0.09_PT002H.grib2 2026-05-01 02:44 930K
20260501T00Z_MSC_RDPS_WindDir_IsbL-1015_RLatLon0.09_PT002H.grib2 2026-05-01 02:44 945K
20260501T00Z_MSC_RDPS_WindGust-Max_AGL-10m_RLatLon0.09_PT002H.grib2 2026-05-01 02:44 932K
20260501T00Z_MSC_RDPS_WindGust-Min_AGL-10m_RLatLon0.09_PT002H.grib2 2026-05-01 02:44 944K
20260501T00Z_MSC_RDPS_WindGust_AGL-10m_RLatLon0.09_PT002H.grib2 2026-05-01 02:44 966K
20260501T00Z_MSC_RDPS_WindSpeed_AGL-10m_RLatLon0.09_PT002H.grib2 2026-05-01 02:44 812K
20260501T00Z_MSC_RDPS_WindSpeed_AGL-120m_RLatLon0.09_PT002H.grib2 2026-05-01 02:44 521K
20260501T00Z_MSC_RDPS_WindSpeed_AGL-40m_RLatLon0.09_PT002H.grib2 2026-05-01 02:44 650K
20260501T00Z_MSC_RDPS_WindSpeed_AGL-80m_RLatLon0.09_PT002H.grib2 2026-05-01 02:44 522K
20260501T00Z_MSC_RDPS_WindSpeed_IsbL-0001_RLatLon0.09_PT002H.grib2 2026-05-01 02:44 246K
20260501T00Z_MSC_RDPS_WindSpeed_IsbL-0005_RLatLon0.09_PT002H.grib2 2026-05-01 02:44 367K
20260501T00Z_MSC_RDPS_WindSpeed_IsbL-0010_RLatLon0.09_PT002H.grib2 2026-05-01 02:44 378K
20260501T00Z_MSC_RDPS_WindSpeed_IsbL-0020_RLatLon0.09_PT002H.grib2 2026-05-01 02:44 305K
20260501T00Z_MSC_RDPS_WindSpeed_IsbL-0030_RLatLon0.09_PT002H.grib2 2026-05-01 02:44 308K
20260501T00Z_MSC_RDPS_WindSpeed_IsbL-0050_RLatLon0.09_PT002H.grib2 2026-05-01 02:44 329K
20260501T00Z_MSC_RDPS_WindSpeed_IsbL-0100_RLatLon0.09_PT002H.grib2 2026-05-01 02:44 457K
20260501T00Z_MSC_RDPS_WindSpeed_IsbL-0150_RLatLon0.09_PT002H.grib2 2026-05-01 02:44 374K
20260501T00Z_MSC_RDPS_WindSpeed_IsbL-0175_RLatLon0.09_PT002H.grib2 2026-05-01 02:44 421K
20260501T00Z_MSC_RDPS_WindSpeed_IsbL-0200_RLatLon0.09_PT002H.grib2 2026-05-01 02:44 438K
20260501T00Z_MSC_RDPS_WindSpeed_IsbL-0225_RLatLon0.09_PT002H.grib2 2026-05-01 02:44 446K
20260501T00Z_MSC_RDPS_WindSpeed_IsbL-0250_RLatLon0.09_PT002H.grib2 2026-05-01 02:44 450K
20260501T00Z_MSC_RDPS_WindSpeed_IsbL-0275_RLatLon0.09_PT002H.grib2 2026-05-01 02:44 468K
20260501T00Z_MSC_RDPS_WindSpeed_IsbL-0300_RLatLon0.09_PT002H.grib2 2026-05-01 02:44 463K
20260501T00Z_MSC_RDPS_WindSpeed_IsbL-0350_RLatLon0.09_PT002H.grib2 2026-05-01 02:44 474K
20260501T00Z_MSC_RDPS_WindSpeed_IsbL-0400_RLatLon0.09_PT002H.grib2 2026-05-01 02:44 474K
20260501T00Z_MSC_RDPS_WindSpeed_IsbL-0450_RLatLon0.09_PT002H.grib2 2026-05-01 02:44 473K
20260501T00Z_MSC_RDPS_WindSpeed_IsbL-0500_RLatLon0.09_PT002H.grib2 2026-05-01 02:44 456K
20260501T00Z_MSC_RDPS_WindSpeed_IsbL-0550_RLatLon0.09_PT002H.grib2 2026-05-01 02:44 458K
20260501T00Z_MSC_RDPS_WindSpeed_IsbL-0600_RLatLon0.09_PT002H.grib2 2026-05-01 02:44 467K
20260501T00Z_MSC_RDPS_WindSpeed_IsbL-0650_RLatLon0.09_PT002H.grib2 2026-05-01 02:44 606K
20260501T00Z_MSC_RDPS_WindSpeed_IsbL-0700_RLatLon0.09_PT002H.grib2 2026-05-01 02:44 634K
20260501T00Z_MSC_RDPS_WindSpeed_IsbL-0750_RLatLon0.09_PT002H.grib2 2026-05-01 02:44 665K
20260501T00Z_MSC_RDPS_WindSpeed_IsbL-0800_RLatLon0.09_PT002H.grib2 2026-05-01 02:44 748K
20260501T00Z_MSC_RDPS_WindSpeed_IsbL-0850_RLatLon0.09_PT002H.grib2 2026-05-01 02:44 750K
20260501T00Z_MSC_RDPS_WindSpeed_IsbL-0875_RLatLon0.09_PT002H.grib2 2026-05-01 02:44 767K
20260501T00Z_MSC_RDPS_WindSpeed_IsbL-0900_RLatLon0.09_PT002H.grib2 2026-05-01 02:44 827K
20260501T00Z_MSC_RDPS_WindSpeed_IsbL-0925_RLatLon0.09_PT002H.grib2 2026-05-01 02:44 838K
20260501T00Z_MSC_RDPS_WindSpeed_IsbL-0950_RLatLon0.09_PT002H.grib2 2026-05-01 02:44 838K
20260501T00Z_MSC_RDPS_WindSpeed_IsbL-0970_RLatLon0.09_PT002H.grib2 2026-05-01 02:44 840K
20260501T00Z_MSC_RDPS_WindSpeed_IsbL-0985_RLatLon0.09_PT002H.grib2 2026-05-01 02:44 833K
20260501T00Z_MSC_RDPS_WindSpeed_IsbL-1000_RLatLon0.09_PT002H.grib2 2026-05-01 02:44 825K
20260501T00Z_MSC_RDPS_WindSpeed_IsbL-1015_RLatLon0.09_PT002H.grib2 2026-05-01 02:44 814K
20260501T00Z_MSC_RDPS_WindU_AGL-10m_RLatLon0.09_PT002H.grib2 2026-05-01 02:44 420K
20260501T00Z_MSC_RDPS_WindU_AGL-120m_RLatLon0.09_PT002H.grib2 2026-05-01 02:44 522K
20260501T00Z_MSC_RDPS_WindU_AGL-40m_RLatLon0.09_PT002H.grib2 2026-05-01 02:44 524K
20260501T00Z_MSC_RDPS_WindU_AGL-80m_RLatLon0.09_PT002H.grib2 2026-05-01 02:44 524K
20260501T00Z_MSC_RDPS_WindU_IsbL-0001_RLatLon0.09_PT002H.grib2 2026-05-01 02:44 236K
20260501T00Z_MSC_RDPS_WindU_IsbL-0005_RLatLon0.09_PT002H.grib2 2026-05-01 02:44 274K
20260501T00Z_MSC_RDPS_WindU_IsbL-0010_RLatLon0.09_PT002H.grib2 2026-05-01 02:44 281K
20260501T00Z_MSC_RDPS_WindU_IsbL-0020_RLatLon0.09_PT002H.grib2 2026-05-01 02:44 336K
20260501T00Z_MSC_RDPS_WindU_IsbL-0030_RLatLon0.09_PT002H.grib2 2026-05-01 02:44 298K
20260501T00Z_MSC_RDPS_WindU_IsbL-0050_RLatLon0.09_PT002H.grib2 2026-05-01 02:44 322K
20260501T00Z_MSC_RDPS_WindU_IsbL-0100_RLatLon0.09_PT002H.grib2 2026-05-01 02:44 414K
20260501T00Z_MSC_RDPS_WindU_IsbL-0150_RLatLon0.09_PT002H.grib2 2026-05-01 02:44 392K
20260501T00Z_MSC_RDPS_WindU_IsbL-0175_RLatLon0.09_PT002H.grib2 2026-05-01 02:44 414K
20260501T00Z_MSC_RDPS_WindU_IsbL-0200_RLatLon0.09_PT002H.grib2 2026-05-01 02:44 334K
20260501T00Z_MSC_RDPS_WindU_IsbL-0225_RLatLon0.09_PT002H.grib2 2026-05-01 02:44 340K
20260501T00Z_MSC_RDPS_WindU_IsbL-0250_RLatLon0.09_PT002H.grib2 2026-05-01 02:44 343K
20260501T00Z_MSC_RDPS_WindU_IsbL-0275_RLatLon0.09_PT002H.grib2 2026-05-01 02:44 356K
20260501T00Z_MSC_RDPS_WindU_IsbL-0300_RLatLon0.09_PT002H.grib2 2026-05-01 02:44 352K
20260501T00Z_MSC_RDPS_WindU_IsbL-0350_RLatLon0.09_PT002H.grib2 2026-05-01 02:44 360K
20260501T00Z_MSC_RDPS_WindU_IsbL-0400_RLatLon0.09_PT002H.grib2 2026-05-01 02:44 362K
20260501T00Z_MSC_RDPS_WindU_IsbL-0450_RLatLon0.09_PT002H.grib2 2026-05-01 02:44 462K
20260501T00Z_MSC_RDPS_WindU_IsbL-0500_RLatLon0.09_PT002H.grib2 2026-05-01 02:44 464K
20260501T00Z_MSC_RDPS_WindU_IsbL-0550_RLatLon0.09_PT002H.grib2 2026-05-01 02:44 465K
20260501T00Z_MSC_RDPS_WindU_IsbL-0600_RLatLon0.09_PT002H.grib2 2026-05-01 02:44 474K
20260501T00Z_MSC_RDPS_WindU_IsbL-0650_RLatLon0.09_PT002H.grib2 2026-05-01 02:44 478K
20260501T00Z_MSC_RDPS_WindU_IsbL-0700_RLatLon0.09_PT002H.grib2 2026-05-01 02:44 504K
20260501T00Z_MSC_RDPS_WindU_IsbL-0750_RLatLon0.09_PT002H.grib2 2026-05-01 02:44 530K
20260501T00Z_MSC_RDPS_WindU_IsbL-0800_RLatLon0.09_PT002H.grib2 2026-05-01 02:44 565K
20260501T00Z_MSC_RDPS_WindU_IsbL-0850_RLatLon0.09_PT002H.grib2 2026-05-01 02:44 605K
20260501T00Z_MSC_RDPS_WindU_IsbL-0875_RLatLon0.09_PT002H.grib2 2026-05-01 02:44 620K
20260501T00Z_MSC_RDPS_WindU_IsbL-0900_RLatLon0.09_PT002H.grib2 2026-05-01 02:44 630K
20260501T00Z_MSC_RDPS_WindU_IsbL-0925_RLatLon0.09_PT002H.grib2 2026-05-01 02:44 637K
20260501T00Z_MSC_RDPS_WindU_IsbL-0950_RLatLon0.09_PT002H.grib2 2026-05-01 02:44 639K
20260501T00Z_MSC_RDPS_WindU_IsbL-0970_RLatLon0.09_PT002H.grib2 2026-05-01 02:44 777K
20260501T00Z_MSC_RDPS_WindU_IsbL-0985_RLatLon0.09_PT002H.grib2 2026-05-01 02:44 772K
20260501T00Z_MSC_RDPS_WindU_IsbL-1000_RLatLon0.09_PT002H.grib2 2026-05-01 02:44 766K
20260501T00Z_MSC_RDPS_WindU_IsbL-1015_RLatLon0.09_PT002H.grib2 2026-05-01 02:44 804K
20260501T00Z_MSC_RDPS_WindV_AGL-10m_RLatLon0.09_PT002H.grib2 2026-05-01 02:44 416K
20260501T00Z_MSC_RDPS_WindV_AGL-120m_RLatLon0.09_PT002H.grib2 2026-05-01 02:44 518K
20260501T00Z_MSC_RDPS_WindV_AGL-40m_RLatLon0.09_PT002H.grib2 2026-05-01 02:44 519K
20260501T00Z_MSC_RDPS_WindV_AGL-80m_RLatLon0.09_PT002H.grib2 2026-05-01 02:44 519K
20260501T00Z_MSC_RDPS_WindV_IsbL-0001_RLatLon0.09_PT002H.grib2 2026-05-01 02:44 238K
20260501T00Z_MSC_RDPS_WindV_IsbL-0005_RLatLon0.09_PT002H.grib2 2026-05-01 02:44 273K
20260501T00Z_MSC_RDPS_WindV_IsbL-0010_RLatLon0.09_PT002H.grib2 2026-05-01 02:44 283K
20260501T00Z_MSC_RDPS_WindV_IsbL-0020_RLatLon0.09_PT002H.grib2 2026-05-01 02:44 296K
20260501T00Z_MSC_RDPS_WindV_IsbL-0030_RLatLon0.09_PT002H.grib2 2026-05-01 02:44 300K
20260501T00Z_MSC_RDPS_WindV_IsbL-0050_RLatLon0.09_PT002H.grib2 2026-05-01 02:44 322K
20260501T00Z_MSC_RDPS_WindV_IsbL-0100_RLatLon0.09_PT002H.grib2 2026-05-01 02:44 410K
20260501T00Z_MSC_RDPS_WindV_IsbL-0150_RLatLon0.09_PT002H.grib2 2026-05-01 02:44 387K
20260501T00Z_MSC_RDPS_WindV_IsbL-0175_RLatLon0.09_PT002H.grib2 2026-05-01 02:44 412K
20260501T00Z_MSC_RDPS_WindV_IsbL-0200_RLatLon0.09_PT002H.grib2 2026-05-01 02:44 427K
20260501T00Z_MSC_RDPS_WindV_IsbL-0225_RLatLon0.09_PT002H.grib2 2026-05-01 02:44 434K
20260501T00Z_MSC_RDPS_WindV_IsbL-0250_RLatLon0.09_PT002H.grib2 2026-05-01 02:44 436K
20260501T00Z_MSC_RDPS_WindV_IsbL-0275_RLatLon0.09_PT002H.grib2 2026-05-01 02:44 354K
20260501T00Z_MSC_RDPS_WindV_IsbL-0300_RLatLon0.09_PT002H.grib2 2026-05-01 02:44 350K
20260501T00Z_MSC_RDPS_WindV_IsbL-0350_RLatLon0.09_PT002H.grib2 2026-05-01 02:44 358K
20260501T00Z_MSC_RDPS_WindV_IsbL-0400_RLatLon0.09_PT002H.grib2 2026-05-01 02:44 459K
20260501T00Z_MSC_RDPS_WindV_IsbL-0450_RLatLon0.09_PT002H.grib2 2026-05-01 02:44 458K
20260501T00Z_MSC_RDPS_WindV_IsbL-0500_RLatLon0.09_PT002H.grib2 2026-05-01 02:44 460K
20260501T00Z_MSC_RDPS_WindV_IsbL-0550_RLatLon0.09_PT002H.grib2 2026-05-01 02:44 462K
20260501T00Z_MSC_RDPS_WindV_IsbL-0600_RLatLon0.09_PT002H.grib2 2026-05-01 02:44 454K
20260501T00Z_MSC_RDPS_WindV_IsbL-0650_RLatLon0.09_PT002H.grib2 2026-05-01 02:44 474K
20260501T00Z_MSC_RDPS_WindV_IsbL-0700_RLatLon0.09_PT002H.grib2 2026-05-01 02:44 500K
20260501T00Z_MSC_RDPS_WindV_IsbL-0750_RLatLon0.09_PT002H.grib2 2026-05-01 02:44 526K
20260501T00Z_MSC_RDPS_WindV_IsbL-0800_RLatLon0.09_PT002H.grib2 2026-05-01 02:44 560K
20260501T00Z_MSC_RDPS_WindV_IsbL-0850_RLatLon0.09_PT002H.grib2 2026-05-01 02:44 602K
20260501T00Z_MSC_RDPS_WindV_IsbL-0875_RLatLon0.09_PT002H.grib2 2026-05-01 02:44 616K
20260501T00Z_MSC_RDPS_WindV_IsbL-0900_RLatLon0.09_PT002H.grib2 2026-05-01 02:44 628K
20260501T00Z_MSC_RDPS_WindV_IsbL-0925_RLatLon0.09_PT002H.grib2 2026-05-01 02:44 636K
20260501T00Z_MSC_RDPS_WindV_IsbL-0950_RLatLon0.09_PT002H.grib2 2026-05-01 02:44 774K
20260501T00Z_MSC_RDPS_WindV_IsbL-0970_RLatLon0.09_PT002H.grib2 2026-05-01 02:44 774K
20260501T00Z_MSC_RDPS_WindV_IsbL-0985_RLatLon0.09_PT002H.grib2 2026-05-01 02:44 767K
20260501T00Z_MSC_RDPS_WindV_IsbL-1000_RLatLon0.09_PT002H.grib2 2026-05-01 02:44 760K
20260501T00Z_MSC_RDPS_WindV_IsbL-1015_RLatLon0.09_PT002H.grib2 2026-05-01 02:44 797K